Location: Escondida
(34.1015°N, 106.8964°W)
Time: 23:23:02
(UTC+00:00)

Cosmos 2360 Rocket - Pass Details

Date: 11 December 2025
Orbit: 834 x 842 km, 71.0° (Epoch: 19 January)

Event Time Altitude Azimuth Distance (km) Brightness Sun altitude
Exits shadow 12:22:35 - 352° (N) 3,036 4.9 -20.3°
Reaches altitude 10° 12:24:18 10° 359° (N) 2,451 4.4 -19.9°
Maximum altitude 12:29:18 32° 62° (ENE) 1,390 3.8 -18.9°
Drops below altitude 10° 12:34:16 10° 125° (SE) 2,437 5.7 -17.9°
Sets 12:36:56 0° 135° (SE) 3,368 6.4 -17.4°
